SL-14 DEB, 45306

Orbit data source: Space-Track

SL-14 DEB, 45306 is space debris in LEO originally from a launch on Thu, 15 Aug 1991 UTC launched from the Plesetsk Missile And Space Complex (PKMTR). Debris objects in space refer to the collection of defunct objects orbiting the Earth. Examples of debris include non-operational satellites, rocket bodies, and fragments generated from explosions, collisions, or faulty payload assembly.

Loading next visibility...
Identifier
45306, 1991-056AU
Orbit
LEO
Country
Flag of CISCIS
Related business
Manufacturer
Unknown
Mission
Spacecraft
Bus & Motor
Unknown
Mass
Unknown
Launch date (UTC)
1991-08-15 (34 years ago)
Launch vehicle
Unknown
Launch site
Plesetsk Missile And Space Complex (PKMTR)
Object type
Payload
Rocket body
Debris
Shape & HBR
Unknown shape, 0.2 m
Radar Cross Section
Small (<0.1 m²)

Expand to show TLE details & history
Last TLE update: 17 hours ago

TLE from 17 hours ago
0 SL-14 DEB
1 45306U 91056AU  25286.92242079  .00003500  00000-0  53757-2 0  9994
2 45306  82.6160 269.9423 0107580 135.7449 225.2358 13.48994880277009
Epoch: 2025-10-13T22:08Z
TLE epoch observation values (Epoch: 2025-10-13T22:08:17.156Z)
Latitude
-0.00004°
Longitude
-84.84744°
Altitude
1,135.725 km
Speed
7.257 km/s
True Right ascension
17h 59m 46s
True Declination
0° 00' 00"
Sunlit
Object was in daylight at epoch
Visualization orbit readout
Latitude
Unknown
Longitude
Unknown
Altitude
Unknown
Speed
Unknown
Apparent Right ascension
Unknown
Apparent Declination
Unknown
Sunlit
N/A
Visualization observer readout
Local Sidereal Time
09:57:14
Azimuth
Unknown
Elevation
Unknown
Doppler factor
Unknown
Orbital elements
Apogee altitude
1,153.317 km
Perigee altitude
992.995 km
Semi-major axis
7,451.293 km
Eccentricity
0.01076
Inclination
82.616°
RAAN
269.9423°
Arg. of periapsis
135.7449°
True anomaly
224.36876°
Mean anomaly
225.2358°
Eccentric anomaly
224.80146°
Mean motion
3.37439 °/min
Orbital period
106.69 mins
BSTAR
0.0053757
Loading maneuver chart data...
Computing Atmospheric mass density...
Loading historical data...
Loading historical data...
Loading historical data...
Loading historical data...
Loading historical data...
Loading historical data...
Loading historical data...

Documentation

Showing up to 5 results
|